Location: Althorst
(53.6379°N, 10.7715°E)
Time: 15:00:32
(UTC+00:00)

Genesis I - Pass Details

Date: 10 December 2019
Orbit: 494 x 529 km, 64.5° (Epoch: 22 January)

Event Time Altitude Azimuth Distance (km) Brightness Sun altitude
Rises 16:48:35 0° 314° (NW) 2,654 7.2 -15.3°
Reaches altitude 10° 16:50:47 10° 313° (NW) 1,757 6.3 -15.6°
Maximum altitude 16:54:42 81° 228° (SW) 526 3.2 -16.1°
Drops below altitude 10° 16:58:34 10° 140° (SE) 1,723 5.6 -16.7°
Enters shadow 16:58:40 - 140° (SE) 1,765 5.7 -16.7°
